Location: Chevoux
(46.3801°N, 4.9476°E)
Time: 08:28:38
(UTC+00:00)

FO-99 - Visible Passes

Search period start: 21 June 2021 00:00
Search period end: 01 July 2021 00:00
Orbit: 472 x 504 km, 97.2° (Epoch: 19 June)

Date Brightness Start Highest point End Pass type
(mag) Time Alt. Az. Time Alt. Az. Time Alt. Az.
21 Jun ? 20:29:27 10° SW 20:31:52 17° W 20:34:17 10° NW visible
25 Jun ? 20:30:13 10° SW 20:32:34 17° W 20:34:59 10° NW visible
29 Jun ? 20:30:54 10° SW 20:33:15 16° W 20:35:37 10° NW visible
